Stations météo

Publicité
Laval-Etronnier, France (7134): Température de l'air & dewpoint: 16.09.2018 16:00:00 - 22.09.2018 16:00:00 (CEST)Laval-Etronnier, France (7134): Température de l'air 5cm: 16.09.2018 16:00:00 - 22.09.2018 16:00:00 (CEST)Laval-Etronnier, France (7134): Température de l'air -20cm & Température de l'air -100cm: 16.09.2018 16:00:00 - 22.09.2018 16:00:00 (CEST)Laval-Etronnier, France (7134): Vitesse du vent & gusts: 16.09.2018 16:00:00 - 22.09.2018 16:00:00 (CEST)Laval-Etronnier, France (7134): Direction du vent: 16.09.2018 16:00:00 - 22.09.2018 16:00:00 (CEST)Laval-Etronnier, France (7134): reduced air pressure: 16.09.2018 16:00:00 - 22.09.2018 16:00:00 (CEST)Laval-Etronnier, France (7134): visibility: 16.09.2018 16:00:00 - 22.09.2018 16:00:00 (CEST)Laval-Etronnier, France (7134): Ensoleillement: 16.09.2018 16:00:00 - 22.09.2018 16:00:00 (CEST)Laval-Etronnier, France (7134): Quantités de précipitations: 16.09.2018 16:00:00 - 22.09.2018 16:00:00 (CEST)
Date & Time tt [°C] td [°C] tt 5cm [°C] tt -20cm [°C] tt -100cm [°C] ff [km/h] ff [knt] fx [km/h] fx [knt] dd ppp [hPa] vv [km] sd [min] rr [mm]
22.09.2018 16:00:00 17,5 10,1 17,8 17,0 18,5 25 13 48 26 SSW 1019,1 20 0 0,0
22.09.2018 15:00:00 17,4 9,6 17,7 16,8 18,5 21 11 41 22 S 1019,8 20 0 0,0
22.09.2018 14:00:00 16,6 9,8 17,1 16,5 18,5 22 12 37 20 S 1021,0 20 0 0,0
22.09.2018 13:00:00 15,8 9,7 16,3 16,2 18,5 15 8 24 13 S 1022,1 20 0 0,0
22.09.2018 12:00:00 14,7 9,1 15,2 16,0 18,6 15 8 22 12 S 1022,6 20 0 0,0
22.09.2018 11:00:00 13,4 9,3 13,2 15,7 18,6 9 5 14 8 S 1023,4 20 0 0,0
22.09.2018 10:00:00 12,0 9,7 11,5 15,7 18,6 6 4 11 6 SSE 1023,2 20 0 0,0
22.09.2018 09:00:00 11,1 9,0 10,6 15,7 18,6 5 3 9 5 SE 1023,3 20 0 0,0
22.09.2018 08:00:00 10,7 8,8 10,4 15,8 18,6 5 3 11 6 S 1023,8 20 0 0,0
22.09.2018 07:00:00 10,7 8,8 10,3 15,9 18,6 8 4 9 5 S 1023,6 20 0 0,0
22.09.2018 06:00:00 10,8 8,0 9,9 16,0 18,6 3 2 6 3 S 1023,6 20 0 0,0
22.09.2018 05:00:00 10,9 7,6 9,2 16,1 18,6 3 1 9 5 W 1023,6 20 0 0,0
22.09.2018 04:00:00 10,9 7,6 9,4 16,3 18,6 4 2 8 5 W 1023,7 20 0 0,0
22.09.2018 03:00:00 11,5 7,8 10,1 16,5 18,6 6 3 14 8 W 1024,1 20 0 0,0
22.09.2018 02:00:00 11,7 8,4 11,0 16,7 18,6 6 3 10 5 SSW 1023,7 20 0 0,0
22.09.2018 01:00:00 12,1 7,6 9,6 16,9 18,6 6 3 12 6 SW 1024,2 20 0 0,0
22.09.2018 00:00:00 11,9 7,0 8,6 17,2 18,6 4 2 10 6 SW 1024,2 20 0 0,0
21.09.2018 23:00:00 12,0 6,7 7,4 17,5 18,6 4 2 6 3 WNW 1023,5 20 0 0,0
21.09.2018 22:00:00 12,1 6,4 7,0 17,9 18,6 5 3 8 5 W 1023,3 20 0 0,0
21.09.2018 21:00:00 13,4 6,9 9,9 18,3 18,6 6 3 11 6 W 1022,7 20 0 0,0
21.09.2018 20:00:00 14,7 6,8 13,3 18,7 18,6 8 5 23 13 W 1021,8 20 22 0,0
21.09.2018 19:00:00 16,4 6,2 16,6 18,9 18,6 16 8 27 15 W 1020,7 20 60 0,0
21.09.2018 18:00:00 17,0 6,8 18,0 19,0 18,6 14 7 30 16 W 1020,5 20 37 0,0
21.09.2018 17:00:00 17,0 5,9 17,7 19,2 18,6 13 7 32 18 W 1020,3 20 0 0,0
21.09.2018 16:00:00 17,1 5,4 19,0 19,2 18,6 18 10 37 20 W 1019,8 20 14 0,0
21.09.2018 15:00:00 17,3 5,2 17,8 18,9 18,6 20 11 39 21 W 1019,3 20 40 0,0
21.09.2018 14:00:00 16,8 6,6 17,9 18,5 18,6 21 11 37 20 W 1018,9 20 30 0,0
21.09.2018 13:00:00 16,3 8,0 17,5 18,1 18,6 23 12 41 22 W 1017,9 20 43 0,0
21.09.2018 12:00:00 15,3 9,2 16,7 17,9 18,6 25 13 43 23 WNW 1017,3 20 44 0,0
21.09.2018 11:00:00 14,8 9,6 14,4 17,8 18,6 19 11 38 21 WNW 1016,3 20 44 0,0
21.09.2018 10:00:00 13,5 9,7 12,5 18,0 18,6 20 11 33 18 W 1015,2 20 9 0,0
21.09.2018 09:00:00 13,2 10,2 12,0 18,3 18,6 19 10 29 16 W 1014,0 20 0 0,0
21.09.2018 08:00:00 13,3 11,4 12,2 18,7 18,6 18 10 31 17 W 1013,0 20 0 0,0
21.09.2018 07:00:00 13,6 11,1 12,4 19,2 18,6 22 12 54 29 WNW 1011,5 20 0 0,2
21.09.2018 06:00:00 14,0 12,6 13,2 19,4 18,6 31 17 56 30 WNW 1010,7 3,4 0 2,8
21.09.2018 05:00:00 18,0 16,7 17,1 19,6 18,6 26 14 45 24 SSW 1008,8 7 0 1,8
21.09.2018 04:00:00 18,4 16,2 17,1 19,7 18,6 26 14 51 28 SSW 1009,6 11 0 0,4
21.09.2018 03:00:00 18,6 15,7 18,0 19,8 18,6 26 14 51 28 SSW 1009,9 20 0 0,0
21.09.2018 02:00:00 18,3 15,7 17,9 20,0 18,6 24 13 40 22 SSW 1010,2 20 0 0,0
21.09.2018 01:00:00 18,3 15,5 17,5 20,2 18,6 19 10 35 19 SSW 1011,6 20 0 0,0
21.09.2018 00:00:00 18,3 15,4 17,8 20,4 18,6 23 12 42 23 SSW 1012,1 20 0 0,0
20.09.2018 23:00:00 18,4 15,1 17,9 20,7 18,6 19 10 41 22 SSW 1012,7 20 0 0,0
20.09.2018 22:00:00 19,0 14,7 18,4 21,0 18,6 23 13 40 21 SW 1013,2 20 0 0,0
20.09.2018 21:00:00 19,8 14,2 19,3 21,4 18,6 21 11 37 20 SSW 1013,3 20 0 0,0
20.09.2018 20:00:00 20,7 13,9 20,2 21,8 18,6 22 12 42 23 SSW 1013,3 20 14 0,0
20.09.2018 19:00:00 21,8 13,4 22,2 22,1 18,6 23 12 47 25 SSW 1013,9 20 10 0,0
20.09.2018 18:00:00 22,7 13,7 23,6 22,2 18,6 24 13 44 24 SW 1014,5 20 1 0,0
20.09.2018 17:00:00 23,7 14,1 25,2 22,1 18,6 16 9 44 24 SW 1015,0 20 13 0,0
20.09.2018 16:00:00 24,0 13,8 25,8 21,7 18,6 22 12 46 25 SW 1015,5 20 35 0,0
20.09.2018 15:00:00 24,0 14,1 25,1 21,1 18,6 26 14 49 27 SSW 1016,2 20 35 0,0
20.09.2018 14:00:00 23,0 14,6 25,3 20,4 18,6 23 13 45 24 SW 1016,9 20 42 0,0
20.09.2018 13:00:00 22,1 15,0 22,6 19,8 18,6 22 12 42 23 SW 1017,8 20 24 0,0
20.09.2018 12:00:00 20,8 14,4 20,8 19,4 18,6 22 12 41 22 SW 1018,5 20 36 0,0
20.09.2018 11:00:00 19,0 15,7 19,5 19,2 18,6 15 8 28 15 SW 1018,9 20 9 0,0
20.09.2018 10:00:00 18,6 15,8 17,8 19,1 18,6 14 8 29 16 SSW 1019,1 20 35 0,0
20.09.2018 09:00:00 17,7 16,0 16,9 19,1 18,6 13 7 21 11 S 1019,1 16 0 0,0
20.09.2018 08:00:00 17,0 15,7 16,7 19,2 18,6 12 6 21 11 S 1019,1 12 0 0,0
20.09.2018 07:00:00 17,1 15,8 16,4 19,3 18,6 9 5 20 11 S 1019,1 14 0 0,0
20.09.2018 06:00:00 17,1 15,8 16,7 19,4 18,6 13 7 23 13 SSW 1019,3 14 0 0,0
20.09.2018 05:00:00 17,1 15,8 16,6 19,5 18,6 14 7 22 12 SSW 1019,5 12 0 0,0
20.09.2018 04:00:00 17,0 15,7 16,7 19,6 18,6 13 7 21 12 S 1019,4 13 0 0,0
20.09.2018 03:00:00 17,1 16,0 16,7 19,8 18,6 14 7 20 11 SSW 1019,7 13 0 0,0
20.09.2018 02:00:00 17,0 15,5 16,0 20,0 18,6 9 5 17 9 S 1020,1 18 0 0,0
20.09.2018 01:00:00 16,6 15,1 15,5 20,2 18,5 9 5 14 8 SSW 1020,5 17 0 0,0
20.09.2018 00:00:00 16,8 14,4 15,6 20,6 18,6 8 4 13 7 SSW 1020,4 20 0 0,0
19.09.2018 23:00:00 18,3 14,6 17,3 20,9 18,6 9 5 21 11 SSW 1020,4 20 0 0,0
19.09.2018 22:00:00 19,1 14,6 18,2 21,3 18,6 12 7 21 11 SSW 1020,4 20 0 0,0
19.09.2018 21:00:00 20,3 14,2 19,6 21,6 18,6 13 7 21 11 SW 1019,8 20 0 0,0
19.09.2018 20:00:00 21,0 14,2 20,7 21,9 18,6 10 6 32 17 SW 1019,6 20 0 0,0
19.09.2018 19:00:00 22,5 13,6 23,4 22,1 18,5 19 10 36 19 WSW 1019,3 20 35 0,0
19.09.2018 18:00:00 23,5 13,4 24,1 22,1 18,6 21 12 40 22 SW 1019,2 20 43 0,0
19.09.2018 17:00:00 23,6 12,9 25,2 21,7 18,6 22 12 42 23 SW 1019,1 20 43 0,0
19.09.2018 16:00:00 23,6 13,2 25,7 21,2 18,6 20 11 46 25 WSW 1019,4 20 27 0,0
19.09.2018 15:00:00 23,4 13,6 24,0 20,7 18,6 21 11 39 21 WSW 1019,4 20 17 0,0
19.09.2018 14:00:00 22,5 14,9 23,3 20,2 18,6 16 9 36 19 SSW 1019,6 20 22 0,0
19.09.2018 13:00:00 21,2 13,9 22,7 19,6 18,6 20 11 37 20 SW 1020,0 20 28 0,0
19.09.2018 12:00:00 20,7 14,1 20,5 18,9 18,5 20 11 38 20 WSW 1020,0 20 36 0,0
19.09.2018 11:00:00 18,3 15,9 18,1 18,7 18,6 16 9 26 14 SSW 1019,8 14 0 0,0
19.09.2018 10:00:00 17,0 16,0 16,5 18,5 18,5 13 7 23 12 SSW 1019,4 6 0 0,0
19.09.2018 09:00:00 16,1 15,9 15,4 18,5 18,6 10 6 21 12 SSW 1018,7 4,7 0 0,0
19.09.2018 08:00:00 15,4 15,2 14,3 18,6 18,6 11 6 20 11 SSW 1018,5 0,4 0 0,0
19.09.2018 07:00:00 14,9 14,4 14,2 18,8 18,6 9 5 18 10 SSW 1017,9 5 0 0,0
19.09.2018 06:00:00 15,6 15,0 15,2 19,0 18,6 10 5 15 8 S 1017,9 6 0 0,0
19.09.2018 05:00:00 15,6 14,6 14,6 19,0 18,5 7 4 16 8 SSW 1018,3 11 0 0,0
19.09.2018 04:00:00 15,2 14,1 13,2 19,2 18,5 5 3 14 8 S 1018,1 12 0 0,0
19.09.2018 03:00:00 14,8 13,2 12,4 19,6 18,6 4 2 12 7 SW 1018,2 15 0 0,0
19.09.2018 02:00:00 15,2 12,9 13,6 19,9 18,5 7 4 11 6 SSW 1017,9 18 0 0,0
19.09.2018 01:00:00 16,4 13,3 14,8 20,2 18,5 7 4 13 7 WSW 1017,8 19 0 0,0
19.09.2018 00:00:00 17,1 12,8 15,6 20,6 18,5 6 3 20 11 SW 1017,7 20 0 0,0
18.09.2018 23:00:00 18,6 13,0 17,4 21,0 18,5 13 7 22 12 WSW 1017,6 20 0 0,0
18.09.2018 22:00:00 19,2 13,8 18,1 21,4 18,5 9 5 19 11 SW 1017,0 20 0 0,0
18.09.2018 21:00:00 20,1 14,0 19,0 21,9 18,5 11 6 22 12 SW 1016,5 20 0 0,0
18.09.2018 20:00:00 21,6 13,5 20,8 22,3 18,5 13 7 32 18 SW 1015,9 20 46 0,0
18.09.2018 19:00:00 23,5 13,1 24,9 22,5 18,5 14 8 34 18 SW 1015,4 20 60 0,0
18.09.2018 18:00:00 24,6 12,5 27,4 22,4 18,5 17 9 36 19 SW 1015,2 20 60 0,0
18.09.2018 17:00:00 25,0 12,6 27,4 22,1 18,5 18 10 35 19 WSW 1015,2 20 44 0,0
18.09.2018 16:00:00 24,5 13,4 26,8 21,5 18,5 19 11 41 22 WSW 1015,4 20 41 0,0
18.09.2018 15:00:00 24,0 13,5 26,1 20,8 18,5 18 10 43 23 WSW 1015,7 19 36 0,0
18.09.2018 14:00:00 23,4 13,8 24,6 20,4 18,5 16 9 37 20 WSW 1015,6 19 16 0,0
18.09.2018 13:00:00 22,0 14,1 24,1 19,8 18,5 21 12 39 21 WSW 1015,7 20 25 0,0
18.09.2018 12:00:00 21,8 15,2 22,3 19,3 18,5 21 12 39 21 WSW 1015,7 20 27 0,0
18.09.2018 11:00:00 20,4 16,2 20,0 19,1 18,5 15 8 32 17 SW 1015,1 19 12 0,0
18.09.2018 10:00:00 18,8 16,9 18,6 19,0 18,5 10 5 24 13 SW 1014,7 15 19 0,0
18.09.2018 09:00:00 17,7 16,6 16,5 19,0 18,5 11 6 19 11 S 1014,0 16 25 0,0
18.09.2018 08:00:00 17,0 15,9 16,5 19,2 18,5 13 7 21 12 SSW 1013,6 19 0 0,0
18.09.2018 07:00:00 17,7 16,0 16,4 19,3 18,5 13 7 21 12 SSW 1013,1 20 0 0,0
18.09.2018 06:00:00 17,8 16,0 17,0 19,5 18,5 9 5 24 13 SSW 1012,7 20 0 0,0
18.09.2018 05:00:00 18,8 16,4 18,1 19,6 18,5 15 8 33 18 WSW 1013,0 19 0 0,0
18.09.2018 04:00:00 18,2 16,0 16,8 19,7 18,5 13 7 24 13 SW 1012,7 14 0 0,0
18.09.2018 03:00:00 17,1 15,4 16,1 20,0 18,5 10 6 18 10 SSW 1012,5 7 0 0,0
18.09.2018 02:00:00 17,4 15,4 16,4 20,3 18,5 13 7 30 16 SW 1012,4 10 0 0,0
18.09.2018 01:00:00 17,4 13,5 16,6 20,7 18,5 14 8 26 14 WSW 1012,3 20 0 0,0
18.09.2018 00:00:00 19,2 13,4 18,1 21,1 18,5 10 6 18 10 SSW 1011,9 20 0 0,0
17.09.2018 23:00:00 21,3 13,2 20,1 21,5 18,5 13 7 21 12 SW 1011,8 20 0 0,0
17.09.2018 22:00:00 23,4 14,1 22,2 21,9 18,5 14 7 24 13 SW 1011,5 20 0 0,0
17.09.2018 21:00:00 24,5 14,0 23,1 22,3 18,5 11 6 19 10 S 1011,3 20 0 0,0
17.09.2018 20:00:00 26,6 12,6 25,2 22,7 18,5 13 7 27 15 S 1011,1 20 48 0,0
17.09.2018 19:00:00 28,8 12,2 30,1 22,9 18,5 20 11 34 19 S 1011,2 20 60 0,0
17.09.2018 18:00:00 29,7 10,8 32,1 22,8 18,6 20 11 34 19 S 1011,6 20 60 0,0
17.09.2018 17:00:00 29,6 10,2 32,9 22,2 18,6 16 9 33 18 SSE 1012,5 20 60 0,0
17.09.2018 16:00:00 28,7 9,9 32,8 21,3 18,6 17 9 35 19 S 1013,5 20 60 0,0
17.09.2018 15:00:00 28,1 9,9 32,3 20,2 18,6 18 10 37 20 S 1014,3 20 60 0,0
17.09.2018 14:00:00 27,4 9,2 30,8 19,1 18,6 18 10 31 17 S 1015,1 20 60 0,0
17.09.2018 13:00:00 26,1 8,1 29,1 17,9 18,6 19 10 31 17 SSE 1015,9 20 60 0,0
17.09.2018 12:00:00 24,4 9,5 26,8 16,9 18,6 13 7 24 13 SSE 1016,8 20 60 0,0
17.09.2018 11:00:00 19,9 9,5 21,2 16,3 18,6 6 3 13 7 E 1017,6 20 60 0,0
17.09.2018 10:00:00 15,8 9,0 13,4 16,1 18,6 6 3 10 5 E 1018,3 20 60 0,0
17.09.2018 09:00:00 10,8 8,4 7,6 16,2 18,6 6 3 11 6 N 1018,9 19 55 0,0
17.09.2018 08:00:00 8,2 6,8 6,0 16,4 18,6 8 4 12 6 N 1019,1 20 0 0,0
17.09.2018 07:00:00 8,4 7,2 6,4 16,7 18,6 9 5 11 6 N 1019,1 20 0 0,0
17.09.2018 06:00:00 8,8 7,1 5,4 17,0 18,6 7 4 9 5 NNE 1018,9 20 0 0,0
17.09.2018 05:00:00 9,5 7,6 5,1 17,3 18,6 0 0 6 4 N 1019,3 20 0 0,0
17.09.2018 04:00:00 9,9 8,0 7,5 17,6 18,6 8 4 9 5 NNW 1019,9 20 0 0,0
17.09.2018 03:00:00 10,8 8,6 6,7 18,0 18,6 4 2 11 6 N 1020,1 20 0 0,0
17.09.2018 02:00:00 11,6 8,3 7,1 18,4 18,6 5 3 7 4 N 1020,3 20 0 0,0
17.09.2018 01:00:00 13,0 8,3 7,2 18,8 18,6 3 2 4 2 NW 1020,5 20 0 0,0
17.09.2018 00:00:00 13,9 8,7 8,8 19,2 18,6 0 0 6 4 N 1020,5 20 0 0,0
16.09.2018 23:00:00 16,2 7,7 9,1 19,8 18,7 0 0 3 2 N 1020,8 20 0 0,0
16.09.2018 22:00:00 17,4 7,7 10,2 20,3 18,7 2 1 5 3 WNW 1020,7 20 0 0,0
16.09.2018 21:00:00 19,4 7,8 11,5 20,8 18,7 2 1 5 3 SSW 1020,1 20 0 0,0
16.09.2018 20:00:00 21,0 7,6 18,6 21,2 18,7 3 2 7 4 S 1019,7 20 7 0,0
16.09.2018 19:00:00 22,5 7,5 21,5 21,3 18,6 5 3 13 7 W 1019,6 20 32 0,0
16.09.2018 18:00:00 24,6 6,8 26,5 21,1 18,7 6 3 13 7 SW 1019,2 18 36 0,0
16.09.2018 17:00:00 24,3 7,4 27,4 20,6 18,7 7 4 14 7 S 1019,5 20 32 0,0
16.09.2018 16:00:00 24,1 7,3 27,8 20,0 18,7 4 2 13 7 WSW 1019,9 20 35 0,0

tt = Température de l'air
td = dewpoint
tt 5cm = Température de l'air 5cm
tt -20cm = Température de l'air -20cm
tt -100cm = Température de l'air -100cm
ff = Vitesse du vent
fx = gusts
dd = Direction du vent
ppp = reduced air pressure
vv = visibility
sd = Ensoleillement
rr = Quantités de précipitations

stations d'obs. à proximité